Location: Home
(42.5358°N, 72.7383°W)
Time: 21:02:04
(UTC-05:00)

Vanguard 2 Rocket - Pass Details

Date: 09 December 2021
Orbit: 554 x 3325 km, 32.9° (Epoch: 21 January)

Event Time Altitude Azimuth Distance (km) Brightness Sun altitude
Rises 16:17:41 0° 229° (SW) 2,780 11.8 -0.8°
Reaches altitude 10° 16:20:02 10° 213° (SSW) 2,001 10.0 -1.2°
Maximum altitude 16:23:37 24° 159° (SSE) 1,542 8.2 -1.8°
Drops below altitude 10° 16:28:27 10° 108° (ESE) 2,763 9.0 -2.6°
Sets 16:32:21 0° 96° (E) 4,172 9.8 -3.2°
